23:57
Airports
History
Links
Donate
Help keep this website running!
PayPal
Bitcoin
This page is community maintained. The information is intended for PC simulator navigation or reference.
Always use approved charts for navigation.
SBBU
BAURU
BAURU (SBBU)
Bauru, São Paulo, Brazil (17012191)
(U)
Lat/Lng:22° 20' 42.15" S / 49° 3' 13.69" W
-22.345041 / -49.053802
Elevation:2025'ft / 617mMSL
ID / ICAO:SBBU
Runways:1
Longest:14-32
Asphalt 1,497m / 4,910ft
METAR22:00 GMT 2017-12-12
Altimeter: 29.94
Visibility: 6.2 statute miles
Wind: 14 knots (from 060°)
Temp: 26°c / 79°f
Humidity: 61.4%

METAR: SBBU 122200Z 06014KT CAVOK 26/18 Q1014

(Powered by phpweather)
Airport Radio Frequencies
ATIS: 127.87
Tower: 121.3
Approach: 121.3
Runway 14 / 32
Dimensions:1496.7 x 35.1m 4910' x 115'ft
Surface:Asphalt
Edge Lights:Low intensity
Runway 14 [A]Runway 32 [B]
Heading:122°TH 302°TH
Lat:
Lng:
22° 20' 29.01"S
49° 3' 35.78"W
22° 20' 55.28"S
49° 2' 51.59"W
User Notes and Comments
22° 20' 42.15" S / 49° 3' 13.69" W
Distance To
Airport ID:
Nearby Airports
4 Fazenda Shangri-la 10.7 NM
SDSH WNW 288°
(U) Bauru - Arealva 13.0 NM
SBAE N 355°
4 Pederneiras 18.2 NM
SSOI E 81°
4 Fazenda Bonanza 19.9 NM
SJEJ NW 311°
(C) Lencois Paulista 24.0 NM
SDLP SE 132°
4 Fazenda Sao Lucas 26.3 NM
SDKC W 276°
4 Fazenda Guandu 28.1 NM
SDZV WSW 251°
VFR Chart
Flight Planning at SkyVector.com